Back to catalog

USA 107

AliveMilitaryGEO
NORAD 23435·PAYLOAD·🇺🇸 United States

Launched Dec 22, 1994 from Cape Canaveral Space Force Station

Loading…

TLE

FreshSource: Space-Track

Epoch: Sep 13, 2026, 17:45 UTC

1 23435U 94084A   26256.74008123 -.00000134  00000-0  00000-0 0  9997
2 23435  14.4889 354.4157 0007862 284.4275  83.1434  0.99081498 33699

Track USA 107 in real time with AllMySat

Download on the App Store